Weather Roundup
Issued by NWS

Home | Current Version | Previous Version | Graphics & Text | Print | Product List | Glossary Off
Versions: 1 2 3 4 5 6 7 8 9 10 11 12 13 14 15 16 17 18 19 20 21 22 23 24 25 26 27 28 29 30 31 32 33 34 35 36 37 38 39 40 41 42 43 44 45 46 47 48 49 50

000
NZUS93 KARX 181210
HRRWXR

CURRENT HOURLY OBSERVATIONS ACROSS
MUCH OF THE UPPER MISSISSIPPI VALLEY
NATIONAL WEATHER SERVICE LA CROSSE WI
700 AM CDT THU SEP 18 2014


...SOUTHEAST MINNESOTA...


CITY           SKY/WX    TMP DP  RH WIND       PRES   REMARKS
ROCHESTER      CLEAR     48  46  93 E5        30.08R
ROCHESTER/MAYO FAIR      51  48  90 E7        30.07S
WINONA         CLOUDY    52  50  93 SE5       30.09R
AUSTIN         CLEAR     46  46 100 CALM      30.06R
ALBERT LEA     CLEAR     46  46 100 CALM      30.06R
DODGE CENTER   CLEAR     46  45  93 CALM      30.07R
PRESTON        CLEAR     45  45 100 CALM      30.08R FOG
OWATONNA       CLEAR     48  46  93 CALM      30.06R
FARIBAULT      FOG       52  46  82 CALM      30.06R VSB 1/2
$$

...ELSEWHERE IN MINNESOTA...


CITY           SKY/WX    TMP DP  RH WIND       PRES   REMARKS
MINNEAPOLIS    CLEAR     48  46  93 NE6       30.07S
INTNL FALLS    CLOUDY    42  41  96 SE6       30.10F
DULUTH         MOCLDY    42  36  79 E12       30.13S
RED WING       PTCLDY    48  46  93 E5        30.07R
REDWOOD FALLS  FOG       52  52 100 E8        30.03S VSB 1/4
MANKATO        CLEAR     50  45  81 E3        30.05R
WORTHINGTON    CLEAR     52  50  93 CALM      30.03R
FAIRMONT       CLEAR     46  43  87 CALM      30.04R
$$

...SOUTHWEST WISCONSIN...


CITY           SKY/WX    TMP DP  RH WIND       PRES   REMARKS
LA CROSSE      MOCLDY    51  49  92 E3        30.09R
PRAIRIE DU CHI FOG       47  46  96 CALM      30.09R VSB 1/2
BOSCOBEL       FOG       51  49  92 VRB3      30.11R VSB 1
LONE ROCK      CLOUDY    54  50  86 E10       30.12R FOG
PLATTEVILLE    CLEAR     50  48  92 CALM      30.10R
FORT MC COY    CLOUDY    50  49  98 E6        30.11R FOG
CAMP DOUGLAS   CLOUDY    49  49 100 E9        30.12S FOG
VIROQUA        CLOUDY    47  47 100 E7        30.10R VSB<1/4
WIS DELLS      FOG       50  49  95 E6        30.12R VSB 1/2
$$

...ELSEWHERE IN WISCONSIN...


CITY           SKY/WX    TMP DP  RH WIND       PRES   REMARKS
MILWAUKEE      CLOUDY    52  48  86 N12       30.12R
MADISON        FOG       50  48  93 E10       30.13R VSB 1
GREEN BAY      CLOUDY    44  38  79 N10       30.18R
EAU CLAIRE     MOCLDY    48  45  89 SE12      30.10R
BLACK RVR FLS  FOG       49  49 100 E5        30.11S VSB 1/4
MEDFORD        CLOUDY    45  44  95 E7        30.13R
WAUSAU         CLOUDY    44  41  89 SE9       30.15R
WIS RAPIDS     CLOUDY    46  43  89 E9        30.16R
MARSHFIELD     CLOUDY    45  42  89 E12       30.13S
RICE LAKE      CLOUDY    47  46  93 E5        30.13R FOG
$$

...NORTHEAST IOWA...


CITY           SKY/WX    TMP DP  RH WIND       PRES   REMARKS
WATERLOO       CLEAR     43  42  97 E3        30.07R
DUBUQUE        CLEAR     47  47 100 CALM      30.09R FOG
DECORAH        CLEAR     46  46 100 CALM      30.07R FOG
MASON CITY     PTCLDY    42  42 100 CALM      30.08R FOG
CHARLES CITY   CLEAR     48  46  93 E5        30.07R
OELWEIN        CLEAR     46  46 100 CALM      30.09R FOG
$$

...ELSEWHERE IN IOWA...


CITY           SKY/WX    TMP DP  RH WIND       PRES   REMARKS
DES MOINES     PTCLDY    57  54  89 CALM      30.05R
IOWA CITY      CLEAR     47  46  97 CALM      30.09R
FORT DODGE     CLEAR     52  48  87 SE5       30.06R
MARSHALLTOWN   FOG       47  46  97 E3        30.06R VSB 1/4
CEDAR RAPIDS   CLEAR     45  45 100 CALM      30.08R FOG
$$

...NORTHERN ILLINOIS...


CITY           SKY/WX    TMP DP  RH WIND       PRES   REMARKS
CHICAGO-OHARE  MOCLDY    54  51  90 N9        30.10R FOG
DUPAGE         CLEAR     48  45  89 N3        30.10R FOG
CHICAGO-MIDWAY PTCLDY    54  48  80 N3        30.10R
MOLINE         CLEAR     49  46  90 CALM      30.09R FOG
ROCKFORD       CLEAR     49  45  86 NE5       30.12R FOG
STERLING       CLEAR     46  43  87 CALM      30.08R
PEORIA         FOG       51  48  89 NE3       30.09R VSB 1/4
$$

NOTE: "FAIR" INDICATES FEW OR NO CLOUDS BELOW 12,000 FEET WITH NO
SIGNIFICANT WEATHER AND/OR OBSTRUCTIONS TO VISIBILITY. WIND
SPEEDS ARE IN MILES-PER-HOUR.



USA.gov is the U.S. government's official web portal to all federal, state and local government web resources and services.